Location: Vihti�l�
(61.3833°N, 23.0667°E)
Time: 04:58:01
(UTC+00:00)

NOSS 3-4 (A) - Pass Details

Date: 29 November 2020
Orbit: 879 x 1333 km, 63.4° (Epoch: 21 January)

Event Time Altitude Azimuth Distance (km) Brightness Sun altitude
Rises 05:48:41 0° 256° (WSW) 3,547 6.0 -8.5°
Reaches altitude 10° 05:51:06 10° 258° (WSW) 2,643 5.4 -8.2°
Maximum altitude 05:57:17 81° 346° (NNW) 1,016 3.6 -7.6°
Drops below altitude 10° 06:04:12 10° 74° (ENE) 2,935 6.6 -6.9°
Sets 06:07:01 0° 76° (ENE) 3,963 7.4 -6.6°
